Hourly Weather Roundup
Issued by NWS Central Illinois

Home | Current Version | Previous Version | Text Only | Print | Product List | Glossary On
Versions: 1 2 3 4 5 6 7 8 9 10 11 12 13 14 15 16 17 18 19 20 21 22 23 24 25 26 27 28 29 30 31 32 33 34 35 36 37 38 39 40 41 42 43 44 45 46 47 48 49 50
000
NZUS43 KILX 051810
HWRILX

AREA WEATHER ROUNDUP
NATIONAL WEATHER SERVICE, LINCOLN IL
1200 PM CST MON DEC 05 2016


CITY           SKY/WX    TMP DP  RH WIND       PRES   REMARKS
BLOOMINGTON    FOG       33  31  92 S13       30.02F VSB 1   WCI  24
6HR MIN TEMP:  31; 6HR MAX TEMP:  33;

CHAMPAIGN      CLOUDY    36  32  85 SE9       30.03F WCI  29
6HR MIN TEMP:  33; 6HR MAX TEMP:  36;

DANVILLE       CLOUDY    36  32  87 SE3       30.02F
6HR MIN TEMP:  32; 6HR MAX TEMP:  36;

DECATUR        CLOUDY    36  33  89 S8        30.04F WCI  30
6HR MIN TEMP:  33; 6HR MAX TEMP:  36;

EFFINGHAM      CLOUDY    38  36  91 SE7       30.07S WCI  33
6HR MIN TEMP:  35; 6HR MAX TEMP:  39;

FLORA          CLOUDY    40  35  81 E7        30.06F
6HR MIN TEMP:  37; 6HR MAX TEMP:  41;

GALESBURG      CLOUDY    34  34 100 S9        29.98S FOG     WCI  27
6HR MIN TEMP:  31; 6HR MAX TEMP:  34;

JACKSONVILLE   CLOUDY    38  35  88 S7        30.00F WCI  33
6HR MIN TEMP:  32; 6HR MAX TEMP:  38;

LACON          CLOUDY    35  33  92 S9        30.01F WCI  27
6HR MIN TEMP:  31; 6HR MAX TEMP:  35;

LAWRENCEVILLE  MOSUNNY   41  34  76 E9        30.07F
6HR MIN TEMP:  36; 6HR MAX TEMP:  42;

LITCHFIELD     CLOUDY    38  35  90 SE9       30.01F WCI  31
6HR MIN TEMP:  35; 6HR MAX TEMP:  38;

$$


CITY           SKY/WX    TMP DP  RH WIND       PRES   REMARKS
LINCOLN        CLOUDY    37  35  95 S9        30.02F WCI  30
6HR MIN TEMP:  34; 6HR MAX TEMP:  37;

MACOMB         CLOUDY    35  35 100 S13G18    30.00F FOG     WCI  26
6HR MIN TEMP:  32; 6HR MAX TEMP:  35;

MATTOON        CLOUDY    37  33  85 S7        30.03F WCI  32
6HR MIN TEMP:  34; 6HR MAX TEMP:  37;

MT CARMEL AP   CLOUDY    40  34  76 E9        30.06F WCI  35
6HR MIN TEMP:  36; 6HR MAX TEMP:  41;

OLNEY-NOBLE AP CLOUDY    39  36  87 SE7       30.06F WCI  34
PARIS          CLOUDY    37  34  90 SE7       30.05F WCI  31
6HR MIN TEMP:  34; 6HR MAX TEMP:  37;

PEORIA         CLOUDY    35  34  96 S13       30.01F WCI  26
6HR MIN TEMP:  33; 6HR MAX TEMP:  36;

PONTIAC        CLOUDY    33  33 100 S12       30.04F FOG     WCI  24
6HR MIN TEMP:  32; 6HR MAX TEMP:  33; 6HR PCP:  0.13;

RANTOUL        CLOUDY    36  34  92 S10       30.03F WCI  28
6HR MIN TEMP:  33; 6HR MAX TEMP:  36;

SPRINGFIELD    CLOUDY    39  36  89 SE13      30.01F WCI  31
6HR MIN TEMP:  35; 6HR MAX TEMP:  40;

TAYLORVILLE    CLOUDY    36  34  92 S8        30.02F WCI  30
6HR MIN TEMP:  34; 6HR MAX TEMP:  36;

$$

...REGIONAL REPORTS...


CITY           SKY/WX    TMP DP  RH WIND       PRES   REMARKS
CHICAGO O`HARE CLOUDY    32  31  96 S13       30.02F FOG     WCI  22
KANKAKEE       CLOUDY    33  31  92 S10       30.07F WCI  25
MOLINE         CLOUDY    35  32  88 S8        29.96F FOG     WCI  29
MOUNT STERLING CLOUDY    35  35 100 S6        29.97F FOG     WCI  30
MOUNT VERNON   NOT AVBL
PITTSFIELD     CLOUDY    37  37  98 SE8       29.99F WCI  31
QUINCY         FOG       36  35  96 S12       29.96F VSB 1/2 WCI  28
ROCKFORD       FOG       31  30  96 S17       30.02S VSB 1   WCI  19
$$


CITY           SKY/WX    TMP DP  RH WIND       PRES   REMARKS
BURLINGTON     FOG       33  33 100 S17       29.96F VSB 1/4 WCI  22
CEDAR RAPIDS   FOG       31  31 100 S15       29.89F VSB 1/2 WCI  20
DES MOINES     MOSUNNY   48  37  65 S17G25    29.81F
KIRKSVILLE     FOG       35  35 100 SE9       29.91F VSB 1/4 WCI  28
OTTUMWA        CLOUDY    37  35  92 S16       29.89F FOG     WCI  28
ST LOUIS       CLOUDY    43  35  73 SE12      30.01F
$$


CITY           SKY/WX    TMP DP  RH WIND       PRES   REMARKS
TERRE HAUTE    CLOUDY    39  32  76 SE9       30.05F WCI  33
EVANSVILLE     PTSUNNY   41  33  73 SE6       30.07F
INDIANAPOLIS   PTSUNNY   39  32  76 SE3       30.06F
LAFAYETTE      CLOUDY    35  32  88 S7        30.06F WCI  29
MADISON        CLOUDY    33  31  92 S15       29.94S FOG     WCI  23
MILWAUKEE      CLOUDY    34  31  88 S12       29.98S FOG     WCI  25
$$





USA.gov is the U.S. government's official web portal to all federal, state and local government web resources and services.